Погода в Арамиле

Россия / Свердловская область     56°41′40″N   60°50′03″E
темп.,
°C
ветер,
м/с
пор.,
м/с
влажн.,
%
обл.,
%
осадки,
мм/ч
давл.,
гПа
погр.,
м
20 сентября, пн
пн2023:00+2сз51169100 0.0 10171305
02:000сз5117550 0.0 1019718
05:00−1зсз410875 0.0 1021439
08:00+1зсз398271 0.0 1023435
11:00+5ссз4761100 0.0 10241263
14:00+5ссз4660100 0.0 1026997
17:00+6ссз3757100 0.0 10261421
20:00+4ссз2869100 0.0 1028684
21 сентября, вт
вт2123:00+1ссз22876 0.0 102919
02:00−1сз11945 0.0 103012
05:00−2зсз11955 0.0 103011
08:000з12840 0.0 103069
11:00+7з23504 0.0 1028842
14:00+10зсз33375 0.0 10261198
17:00+11зсз35375 0.0 10241300
20:00+4зсз226435 0.0 102428
22 сентября, ср
ср2223:00+2зсз227898 0.0 102440
02:00+1зсз228810 0.0 102422
05:000зсз11944 0.0 102415
08:00+1ссз128436 0.0 102486
11:00+7ссв1157100 0.0 1025552
14:00+11всв11426 0.0 10241079
17:00+10всв12457 0.0 10241191
20:00+4в11738 0.0 102510
23 сентября, чт
чт2323:00+3всв118431 0.0 102711
02:00+3в118892 0.0 102829
05:00+5в1183100 0.0 102922
08:00+5в248061 0.0 1030219
11:00+9в23596 0.0 1031974
14:00+11вюв224737 0.0 10301408
17:00+10вюв22485 0.0 10301230
20:00+5юв25721 0.0 103293
24 сентября, пт
пт2423:00+2юв23855 0.0 103262
02:00+2ююв24895 0.0 103264
05:00+1ююв269155 0.0 1032133
08:00+2ююв258416 0.0 1032124
11:00+10ю2254100 0.0 1031413
14:00+15ююв12455 0.0 1029836
17:00+15юв224997 0.0 1029603
20:00+8ююв11745 0.0 102910